timestamp,wind_dir_avg,wind_spd_avg,wind_spd_max_dir,wind_spd_gust,battery_voltage,lat,long
2021-08-30 00:04:00+00:00,340.0,6.8,339.0,8.5,12.73,47.59359,-54.27349
2021-08-30 00:14:01+00:00,357.0,11.37,356.0,12.75,12.65,47.59359,-54.27349
2021-08-30 00:24:01+00:00,348.0,9.52,350.0,11.29,12.65,47.59359,-54.27349
2021-08-30 00:34:01+00:00,354.0,11.92,0.0,12.99,12.65,47.59359,-54.27349
2021-08-30 00:44:01+00:00,352.0,11.67,344.0,14.72,12.65,47.59359,-54.27349
2021-08-30 00:54:01+00:00,347.0,11.12,345.0,12.96,12.65,47.59359,-54.27349
2021-08-30 01:04:01+00:00,347.0,10.31,347.0,11.94,12.65,47.59359,-54.27349
2021-08-30 01:14:01+00:00,348.0,11.69,350.0,13.93,12.65,47.59359,-54.27349
2021-08-30 01:24:01+00:00,349.0,10.59,351.0,12.38,12.65,47.59359,-54.27349
2021-08-30 01:34:01+00:00,344.0,11.87,343.0,14.09,12.65,47.59359,-54.27349
2021-08-30 01:44:01+00:00,345.0,11.22,346.0,12.89,12.65,47.59359,-54.27349
2021-08-30 01:54:01+00:00,351.0,11.56,353.0,13.71,12.65,47.59359,-54.27349
2021-08-30 02:04:01+00:00,346.0,12.68,336.0,14.78,12.65,47.59359,-54.27349
2021-08-30 02:14:01+00:00,347.0,13.0,349.0,15.11,12.65,47.59359,-54.27349
2021-08-30 02:24:01+00:00,345.0,12.32,344.0,15.32,12.65,47.59359,-54.27349
2021-08-30 02:34:01+00:00,348.0,11.06,354.0,12.79,12.65,47.59359,-54.27349
2021-08-30 02:44:01+00:00,348.0,11.33,355.0,13.0,12.65,47.59359,-54.27349
2021-08-30 02:54:01+00:00,350.0,10.29,342.0,13.5,12.65,47.59359,-54.27349
2021-08-30 03:04:01+00:00,348.0,10.14,344.0,12.13,12.65,47.59359,-54.27349
2021-08-30 03:14:00+00:00,357.0,9.94,355.0,12.49,12.65,47.59359,-54.27349
2021-08-30 03:24:00+00:00,355.0,10.3,356.0,12.35,12.65,47.59359,-54.27349
2021-08-30 03:34:00+00:00,354.0,10.73,348.0,13.08,12.65,47.59359,-54.27349
2021-08-30 03:44:00+00:00,347.0,12.05,346.0,13.54,12.65,47.59359,-54.27349
2021-08-30 03:54:00+00:00,353.0,10.91,354.0,12.14,12.65,47.59359,-54.27349
2021-08-30 04:04:00+00:00,352.0,11.65,351.0,12.47,12.65,47.59359,-54.27349
2021-08-30 04:14:01+00:00,353.0,10.55,352.0,12.06,12.57,47.59359,-54.27349
2021-08-30 04:24:01+00:00,356.0,9.58,2.0,10.82,12.57,47.59359,-54.27349
2021-08-30 04:34:01+00:00,354.0,10.46,347.0,11.84,12.57,47.59359,-54.27349
2021-08-30 04:44:01+00:00,3.0,10.81,4.0,12.85,12.57,47.59359,-54.27349
2021-08-30 04:54:01+00:00,347.0,11.3,346.0,12.98,12.57,47.59359,-54.27349
2021-08-30 05:04:01+00:00,354.0,11.29,0.0,12.72,12.57,47.59359,-54.27349
2021-08-30 05:14:01+00:00,3.0,10.24,8.0,12.42,12.57,47.59359,-54.27349
2021-08-30 05:24:01+00:00,5.0,9.75,4.0,11.22,12.57,47.59359,-54.27349
2021-08-30 05:34:01+00:00,356.0,10.44,356.0,12.38,12.57,47.59359,-54.27349
2021-08-30 05:44:01+00:00,353.0,12.5,359.0,13.81,12.57,47.59359,-54.27349
2021-08-30 05:54:01+00:00,358.0,10.99,358.0,12.81,12.57,47.59359,-54.27349
2021-08-30 06:04:01+00:00,350.0,11.87,355.0,13.15,12.57,47.59359,-54.27349
2021-08-30 06:14:01+00:00,352.0,11.18,357.0,13.18,12.57,47.59359,-54.27349
2021-08-30 06:24:01+00:00,349.0,10.11,348.0,11.29,12.57,47.59359,-54.27349
2021-08-30 06:34:01+00:00,359.0,9.54,359.0,11.21,12.57,47.59359,-54.27349
2021-08-30 06:44:01+00:00,348.0,9.36,350.0,10.34,12.57,47.59359,-54.27349
2021-08-30 06:54:01+00:00,349.0,9.2,355.0,10.57,12.57,47.59359,-54.27349
2021-08-30 07:04:01+00:00,355.0,9.27,350.0,11.11,12.57,47.59359,-54.27349
2021-08-30 07:14:01+00:00,345.0,9.03,346.0,10.99,12.49,47.59359,-54.27349
2021-08-30 07:24:01+00:00,346.0,9.85,353.0,11.5,12.49,47.59359,-54.27349
2021-08-30 07:34:01+00:00,356.0,9.51,354.0,11.07,12.49,47.59359,-54.27349
2021-08-30 07:44:01+00:00,342.0,9.12,338.0,11.53,12.49,47.59359,-54.27349
2021-08-30 07:54:01+00:00,345.0,9.82,349.0,11.53,12.49,47.59359,-54.27349
2021-08-30 08:04:01+00:00,337.0,9.59,340.0,11.99,12.49,47.59359,-54.27349
2021-08-30 08:14:01+00:00,350.0,8.44,345.0,9.95,12.49,47.59359,-54.27349
2021-08-30 08:24:01+00:00,337.0,7.66,332.0,9.21,12.49,47.59359,-54.27349
2021-08-30 08:34:01+00:00,354.0,6.68,2.0,7.7,12.49,47.59359,-54.27349
2021-08-30 08:44:01+00:00,342.0,7.69,334.0,9.75,12.49,47.59359,-54.27349
2021-08-30 08:54:01+00:00,340.0,5.0,333.0,6.01,12.49,47.59359,-54.27349
2021-08-30 09:04:01+00:00,345.0,6.49,349.0,7.41,12.49,47.59359,-54.27349
2021-08-30 09:14:01+00:00,354.0,6.2,350.0,7.71,12.41,47.59359,-54.27349
2021-08-30 09:24:01+00:00,351.0,6.12,355.0,7.23,12.41,47.59359,-54.27349
2021-08-30 09:34:01+00:00,326.0,4.82,322.0,5.78,12.41,47.59359,-54.27349
2021-08-30 09:44:01+00:00,322.0,7.87,328.0,8.89,12.41,47.59359,-54.27349
2021-08-30 09:54:01+00:00,326.0,8.34,313.0,10.14,12.41,47.59359,-54.27349
2021-08-30 10:04:01+00:00,335.0,7.31,337.0,8.77,12.41,47.59359,-54.27349
2021-08-30 10:14:01+00:00,320.0,6.96,330.0,7.98,13.13,47.59359,-54.27349
2021-08-30 10:24:01+00:00,321.0,7.49,315.0,8.83,13.13,47.59359,-54.27349
2021-08-30 10:34:01+00:00,327.0,8.33,323.0,10.61,13.13,47.59359,-54.27349
2021-08-30 10:44:01+00:00,313.0,8.28,313.0,9.07,13.13,47.59359,-54.27349
2021-08-30 10:54:01+00:00,316.0,7.71,317.0,8.87,13.13,47.59359,-54.27349
2021-08-30 11:04:01+00:00,326.0,8.15,331.0,9.3,13.13,47.59359,-54.27349
2021-08-30 11:14:01+00:00,333.0,6.55,340.0,7.31,13.6,47.59359,-54.27349
2021-08-30 11:24:01+00:00,353.0,7.26,355.0,7.93,13.6,47.59359,-54.27349
2021-08-30 11:34:01+00:00,3.0,7.12,6.0,8.44,13.6,47.59359,-54.27349
2021-08-30 11:44:01+00:00,349.0,8.6,351.0,9.98,13.6,47.59359,-54.27349
2021-08-30 11:54:01+00:00,335.0,8.84,334.0,9.72,13.6,47.59359,-54.27349
2021-08-30 12:04:01+00:00,338.0,9.74,340.0,10.83,13.6,47.59359,-54.27349
2021-08-30 12:14:01+00:00,346.0,9.42,353.0,10.34,14.24,47.59359,-54.27349
2021-08-30 12:24:01+00:00,356.0,9.23,354.0,10.0,14.24,47.59359,-54.27349
2021-08-30 12:34:01+00:00,358.0,7.63,357.0,8.79,14.24,47.59359,-54.27349
2021-08-30 12:44:01+00:00,357.0,6.49,0.0,7.4,14.24,47.59359,-54.27349
2021-08-30 12:54:01+00:00,358.0,5.49,359.0,5.98,14.24,47.59359,-54.27349
2021-08-30 13:04:01+00:00,10.0,6.03,9.0,6.81,14.24,47.59359,-54.27349
2021-08-30 13:14:01+00:00,4.0,5.43,5.0,6.3,14.32,47.59359,-54.27349
2021-08-30 13:24:01+00:00,24.0,4.87,21.0,5.49,14.32,47.59359,-54.27349
2021-08-30 13:34:01+00:00,27.0,4.69,29.0,5.47,14.32,47.59359,-54.27349
2021-08-30 13:44:01+00:00,32.0,5.4,33.0,5.86,14.32,47.59359,-54.27349
2021-08-30 13:54:01+00:00,21.0,5.56,21.0,6.52,14.32,47.59359,-54.27349
2021-08-30 14:04:01+00:00,24.0,5.85,27.0,7.04,14.32,47.59359,-54.27349
2021-08-30 14:14:01+00:00,36.0,5.83,36.0,6.4,14.32,47.59359,-54.27349
2021-08-30 14:24:01+00:00,32.0,4.42,36.0,5.53,14.32,47.59359,-54.27349
2021-08-30 14:34:01+00:00,48.0,5.46,48.0,6.43,14.32,47.59359,-54.27349
2021-08-30 14:44:01+00:00,47.0,5.09,53.0,5.98,14.32,47.59359,-54.27349
2021-08-30 14:54:01+00:00,47.0,4.83,36.0,6.11,14.32,47.59359,-54.27349
2021-08-30 15:04:01+00:00,29.0,6.29,30.0,7.21,14.32,47.59359,-54.27349
2021-08-30 15:14:01+00:00,27.0,5.76,27.0,6.56,13.6,47.59359,-54.27349
2021-08-30 15:24:01+00:00,23.0,4.39,21.0,5.13,13.6,47.59359,-54.27349
2021-08-30 15:34:01+00:00,23.0,4.37,26.0,4.99,13.6,47.59359,-54.27349
2021-08-30 15:44:01+00:00,3.0,5.81,7.0,6.47,13.6,47.59359,-54.27349
2021-08-30 15:54:01+00:00,8.0,5.66,6.0,6.44,13.6,47.59359,-54.27349
2021-08-30 16:04:01+00:00,11.0,5.91,8.0,6.79,13.6,47.59359,-54.27349
2021-08-30 16:14:01+00:00,12.0,5.84,13.0,6.38,14.32,47.59359,-54.27349
2021-08-30 16:24:01+00:00,3.0,4.88,6.0,5.41,14.32,47.59359,-54.27349
2021-08-30 16:34:01+00:00,5.0,4.74,8.0,5.44,14.32,47.59359,-54.27349
2021-08-30 16:44:01+00:00,0.0,2.16,0.0,2.76,14.32,47.59359,-54.27349
2021-08-30 16:54:01+00:00,347.0,3.44,353.0,4.02,14.32,47.59359,-54.27349
2021-08-30 17:04:01+00:00,37.0,1.53,18.0,2.58,14.32,47.59359,-54.27349
2021-08-30 17:14:01+00:00,196.0,1.12,203.0,1.57,14.32,47.59359,-54.27349
2021-08-30 17:24:01+00:00,192.0,2.68,192.0,3.07,14.32,47.59359,-54.27349
2021-08-30 17:34:01+00:00,174.0,2.64,180.0,3.03,14.32,47.59359,-54.27349
2021-08-30 17:44:01+00:00,167.0,2.33,168.0,2.52,14.32,47.59359,-54.27349
2021-08-30 17:54:01+00:00,173.0,2.21,173.0,2.41,14.32,47.59359,-54.27349
2021-08-30 18:04:01+00:00,136.0,2.35,140.0,2.79,14.32,47.59359,-54.27349
2021-08-30 18:14:01+00:00,166.0,2.53,171.0,2.76,14.0,47.59359,-54.27349
2021-08-30 18:24:01+00:00,182.0,1.4,182.0,1.54,14.0,47.59359,-54.27349
2021-08-30 18:34:01+00:00,189.0,2.08,193.0,2.51,14.0,47.59359,-54.27349
2021-08-30 18:44:01+00:00,193.0,2.92,196.0,3.23,14.0,47.59359,-54.27349
2021-08-30 18:54:01+00:00,196.0,3.82,197.0,4.1,14.0,47.59359,-54.27349
2021-08-30 19:04:01+00:00,203.0,4.32,202.0,4.62,14.0,47.59359,-54.27349
2021-08-30 19:14:01+00:00,201.0,4.36,203.0,4.87,13.84,47.59359,-54.27349
2021-08-30 19:24:01+00:00,198.0,5.6,198.0,6.02,13.84,47.59359,-54.27349
2021-08-30 19:34:01+00:00,206.0,4.99,210.0,5.56,13.84,47.59359,-54.27349
2021-08-30 19:44:01+00:00,203.0,5.38,204.0,5.92,13.84,47.59359,-54.27349
2021-08-30 19:54:01+00:00,193.0,5.29,196.0,5.82,13.84,47.59359,-54.27349
2021-08-30 20:04:01+00:00,211.0,5.58,211.0,6.14,13.84,47.59359,-54.27349
2021-08-30 20:14:01+00:00,206.0,5.35,208.0,5.83,13.76,47.59359,-54.27349
2021-08-30 20:24:01+00:00,199.0,5.3,201.0,5.78,13.76,47.59359,-54.27349
2021-08-30 20:34:01+00:00,195.0,4.61,197.0,5.42,13.76,47.59359,-54.27349
2021-08-30 20:44:01+00:00,194.0,4.29,196.0,4.67,13.76,47.59359,-54.27349
2021-08-30 20:54:01+00:00,195.0,4.41,200.0,4.65,13.76,47.59359,-54.27349
2021-08-30 21:04:01+00:00,211.0,2.78,214.0,3.09,13.76,47.59359,-54.27349
2021-08-30 21:14:01+00:00,209.0,1.61,205.0,1.81,13.53,47.59359,-54.27349
2021-08-30 21:24:01+00:00,209.0,1.9,213.0,2.4,13.53,47.59359,-54.27349
2021-08-30 21:34:01+00:00,193.0,1.16,189.0,1.45,13.53,47.59359,-54.27349
2021-08-30 21:44:01+00:00,157.0,1.61,159.0,1.79,13.53,47.59359,-54.27349
2021-08-30 21:54:01+00:00,174.0,2.16,175.0,2.34,13.53,47.59359,-54.27349
2021-08-30 22:04:01+00:00,155.0,2.14,149.0,2.36,13.53,47.59359,-54.27349
2021-08-30 22:14:01+00:00,144.0,1.59,142.0,1.86,13.21,47.59359,-54.27349
2021-08-30 22:24:01+00:00,182.0,0.95,187.0,1.04,13.21,47.59359,-54.27349
2021-08-30 22:34:01+00:00,160.0,0.78,162.0,0.89,13.21,47.59359,-54.27349
2021-08-30 22:44:01+00:00,162.0,1.16,161.0,1.28,13.21,47.59359,-54.27349
2021-08-30 22:54:01+00:00,180.0,2.24,181.0,2.73,13.21,47.59359,-54.27349
2021-08-30 23:04:01+00:00,179.0,1.77,178.0,2.23,13.21,47.59359,-54.27349
2021-08-30 23:14:00+00:00,190.0,1.39,186.0,1.72,12.73,47.59359,-54.27349
2021-08-30 23:24:00+00:00,289.0,1.29,298.0,1.67,12.73,47.59359,-54.27349
2021-08-30 23:34:00+00:00,327.0,3.07,325.0,3.39,12.73,47.59359,-54.27349
2021-08-30 23:44:00+00:00,327.0,3.99,327.0,4.24,12.73,47.59359,-54.27349
2021-08-30 23:54:00+00:00,317.0,3.78,318.0,3.96,12.73,47.59359,-54.27349
